1491418800.55,36357,14.75,73304.0,-2.89,-3.79,-3.79,0,*57
1491418801.78,36358,14.75,73306.0,-2.89,-3.79,-3.79,0,*58
1491418803.04,36359,14.75,73304.8,-2.89,-3.71,-3.71,0,*59
1491418804.29,36360,14.75,73302.8,-2.89,-3.79,-3.71,0,*5B
1491418805.52,36361,14.69,73300.0,-2.89,-3.91,-3.79,0,*54
1491418806.78,36362,14.69,73296.0,-2.89,-3.71,-3.71,0,*51
1491418808.03,36363,14.75,73300.8,-2.89,-3.79,-3.71,0,*58
1491418809.29,36364,14.69,73300.3,-2.89,-3.71,-3.71,0,*57
1491418810.52,36365,14.75,73306.8,-2.89,-3.79,-3.79,0,*56
1491418811.77,36366,14.69,73300.5,-2.89,-3.71,-3.79,0,*5D
1491418812.98,36367,14.75,73302.8,-2.91,-3.75,-3.75,0,*5D
1491418814.23,36368,14.75,73304.8,-2.89,-3.79,-3.71,0,*53
1491418815.44,36369,14.75,73302.3,-2.91,-3.75,-3.83,0,*5A
1491418816.64,36370,14.69,73300.8,-2.91,-3.83,-3.87,0,*5F
1491418817.85,36371,14.75,73302.5,-2.91,-3.83,-3.83,0,*5A
1491418819.06,36372,14.75,73304.5,-2.91,-3.75,-3.75,0,*59
1491418820.31,36373,14.75,73306.5,-2.89,-3.79,-3.71,0,*59
1491418821.52,36374,14.75,73304.5,-2.91,-3.83,-3.75,0,*56
1491418822.76,36375,14.75,73304.0,-2.89,-3.79,-3.71,0,*5F
1491418823.97,36376,14.75,73302.3,-2.87,-3.83,-3.79,0,*5F
1491418825.18,36377,14.69,73300.0,-2.91,-3.83,-3.75,0,*55
1491418826.41,36378,14.69,73302.5,-2.87,-3.79,-3.71,0,*5C
1491418827.63,36379,14.69,73300.0,-2.87,-3.79,-3.71,0,*5D
1491418828.89,36380,14.69,73300.5,-2.89,-3.71,-3.71,0,*5D
1491418830.16,36381,14.75,73304.5,-2.89,-3.71,-3.71,0,*5C
1491418831.42,36382,14.69,73302.0,-2.89,-3.71,-3.71,0,*5F
1491418832.67,36383,14.75,73304.8,-2.89,-3.71,-3.79,0,*56
1491418833.91,36384,14.75,73304.0,-2.87,-3.71,-3.71,0,*57
1491418835.17,36385,14.69,73300.8,-2.89,-3.71,-3.71,0,*58
1491418836.43,36386,14.69,73300.8,-2.89,-3.71,-3.71,0,*5B
1491418837.68,36387,14.69,73300.0,-2.89,-3.79,-3.71,0,*52
1491418838.94,36388,14.75,73304.3,-2.89,-3.71,-3.71,0,*55
1491418840.21,36389,14.69,73302.5,-2.89,-3.71,-3.71,0,*54
1491418841.47,36390,14.69,73302.0,-2.89,-3.71,-3.71,0,*5C
1491418842.73,36391,14.75,73304.3,-2.89,-3.71,-3.71,0,*5D
1491418844.0,36392,14.69,73300.5,-2.89,-3.71,-3.71,0,*5E
1491418845.26,36393,14.69,73302.8,-2.89,-3.71,-3.71,0,*5F
1491418846.52,36394,14.69,73302.3,-2.89,-3.71,-3.71,0,*58
1491418847.78,36395,14.75,73306.3,-2.89,-3.71,-3.71,0,*59
1491418849.05,36396,14.75,73306.3,-2.89,-3.71,-3.71,0,*5A
1491418850.29,36397,14.75,73304.8,-2.87,-3.71,-3.71,0,*55
1491418851.53,36398,14.69,73300.0,-2.87,-3.71,-3.71,0,*5A
1491418852.79,36399,14.75,73304.5,-2.89,-3.71,-3.71,0,*55
1491418854.05,36400,14.75,73304.3,-2.89,-3.71,-3.71,0,*52
1491418855.32,36401,14.75,73302.5,-2.89,-3.71,-3.71,0,*53
1491418856.58,36402,14.69,73300.5,-2.89,-3.71,-3.71,0,*50
1491418857.84,36403,14.69,73302.0,-2.89,-3.71,-3.71,0,*51
1491418859.1,36404,14.75,73302.3,-2.89,-3.71,-3.71,0,*56
1491418860.35,36405,14.69,73300.0,-2.87,-3.71,-3.71,0,*59
1491418861.59,36406,14.69,73300.3,-2.87,-3.71,-3.71,0,*5A
1491418862.85,36407,14.69,73300.8,-2.89,-3.71,-3.71,0,*55
1491418864.11,36408,14.69,73302.3,-2.89,-3.67,-3.67,0,*5A
1491418865.38,36409,14.75,73304.0,-2.89,-3.67,-3.71,0,*5C
1491418866.64,36410,14.75,73306.0,-2.89,-3.67,-3.71,0,*54
1491418867.9,36411,14.69,73302.3,-2.89,-3.67,-3.71,0,*55
1491418869.17,36412,14.75,73302.3,-2.89,-3.67,-3.63,0,*55
1491418870.41,36413,14.69,73300.0,-2.87,-3.67,-3.67,0,*5E
1491418871.65,36414,14.69,73300.5,-2.87,-3.67,-3.67,0,*59
1491418872.91,36415,14.69,73300.8,-2.89,-3.67,-3.67,0,*56
1491418874.18,36416,14.75,73304.0,-2.89,-3.67,-3.67,0,*55
1491418875.44,36417,14.69,73302.5,-2.89,-3.67,-3.63,0,*50
1491418876.7,36418,14.69,73300.3,-2.89,-3.71,-3.67,0,*5C
1491418877.97,36419,14.69,73302.8,-2.89,-3.71,-3.63,0,*59
1491418879.23,36420,14.69,73300.5,-2.89,-3.71,-3.63,0,*53
1491418880.49,36421,14.69,73300.5,-2.89,-3.71,-3.67,0,*56
1491418881.76,36422,14.75,73302.5,-2.89,-3.63,-3.67,0,*56
1491418883.0,36423,14.69,73302.5,-2.87,-3.67,-3.67,0,*5D
1491418884.23,36424,14.75,73302.3,-2.89,-3.79,-3.79,0,*54
1491418885.5,36425,14.69,73300.8,-2.89,-3.71,-3.71,0,*55
1491418886.72,36426,14.69,73300.5,-2.87,-3.79,-3.71,0,*50
1491418887.97,36427,14.75,73302.5,-2.89,-3.79,-3.71,0,*5F
1491418889.21,36428,14.69,73302.0,-2.89,-3.71,-3.79,0,*50
1491418890.48,36429,14.69,73300.3,-2.89,-3.71,-3.71,0,*59
1491418891.72,36430,14.69,73302.0,-2.89,-3.79,-3.71,0,*59
1491418892.93,36431,14.75,73302.3,-2.87,-3.79,-3.79,0,*5E
1491418894.19,36432,14.75,73302.0,-2.89,-3.71,-3.71,0,*53
1491418895.46,36433,14.69,73302.5,-2.89,-3.71,-3.71,0,*52
1491418896.71,36434,14.69,73302.8,-2.89,-3.79,-3.71,0,*5D
1491418897.94,36435,14.69,73302.3,-2.87,-3.71,-3.71,0,*5A
1491418899.21,36436,14.69,73300.0,-2.89,-3.71,-3.71,0,*57
1491418900.45,36437,14.69,73300.8,-2.87,-3.71,-3.71,0,*58
1491418901.71,36438,14.69,73300.3,-2.89,-3.63,-3.71,0,*5A
1491418902.98,36439,14.69,73302.8,-2.89,-3.67,-3.71,0,*5F
1491418904.22,36440,14.69,73300.0,-2.87,-3.67,-3.67,0,*58
1491418905.46,36441,14.69,73302.3,-2.87,-3.67,-3.67,0,*59
1491418906.7,36442,14.69,73298.8,-2.87,-3.67,-3.67,0,*5A
1491418907.94,36443,14.69,73302.5,-2.87,-3.71,-3.67,0,*5C
1491418909.18,36444,14.69,73302.8,-2.87,-3.71,-3.67,0,*5B
1491418910.42,36445,14.75,73300.5,-2.87,-3.71,-3.67,0,*5A
1491418911.66,36446,14.75,73302.8,-2.87,-3.71,-3.67,0,*59
1491418912.9,36447,14.69,73302.5,-2.87,-3.67,-3.67,0,*5F
1491418914.17,36448,14.69,73298.3,-2.89,-3.67,-3.67,0,*5E
1491418915.43,36449,14.69,73302.8,-2.89,-3.71,-3.67,0,*58
1491418916.69,36450,14.69,73300.3,-2.89,-3.71,-3.67,0,*50
1491418917.93,36451,14.69,73300.3,-2.87,-3.71,-3.63,0,*5B
1491418919.2,36452,14.75,73300.8,-2.89,-3.71,-3.67,0,*52
1491418920.46,36453,14.75,73302.0,-2.89,-3.71,-3.67,0,*53
1491418921.7,36454,14.69,73298.3,-2.87,-3.67,-3.67,0,*5D
1491418922.94,36455,14.69,73302.0,-2.87,-3.67,-3.67,0,*5C
1491418924.21,36456,14.75,73304.3,-2.89,-3.67,-3.67,0,*51
1491418925.47,36457,14.69,73300.8,-2.89,-3.67,-3.63,0,*54
1491418926.71,36458,14.69,73298.8,-2.87,-3.67,-3.67,0,*51
1491418927.98,36459,14.69,73296.0,-2.89,-3.67,-3.67,0,*5E
1491418929.24,36460,14.69,73300.3,-2.89,-3.67,-3.67,0,*54
1491418930.48,36461,14.69,73296.5,-2.87,-3.67,-3.67,0,*5B
1491418931.72,36462,14.69,73298.8,-2.87,-3.67,-3.67,0,*58
1491418932.96,36463,14.69,73300.5,-2.87,-3.71,-3.67,0,*5E
1491418934.23,36464,14.75,73302.0,-2.89,-3.67,-3.67,0,*50
1491418935.47,36465,14.69,73300.8,-2.87,-3.67,-3.67,0,*5F
1491418936.71,36466,14.69,73298.8,-2.87,-3.67,-3.67,0,*5C
1491418937.97,36467,14.75,73304.3,-2.89,-3.67,-3.67,0,*53
1491418939.24,36468,14.69,73298.8,-2.89,-3.67,-3.67,0,*5C
1491418940.48,36469,14.75,73300.0,-2.87,-3.67,-3.67,0,*53
1491418941.72,36470,14.75,73302.3,-2.87,-3.67,-3.63,0,*5F
1491418942.96,36471,14.75,73300.3,-2.87,-3.63,-3.67,0,*5E
1491418944.23,36472,14.69,73298.3,-2.89,-3.67,-3.63,0,*53
1491418945.47,36473,14.69,73298.8,-2.87,-3.67,-3.63,0,*5C
1491418946.71,36474,14.69,73300.0,-2.87,-3.63,-3.63,0,*5F
1491418947.98,36475,14.69,73300.8,-2.89,-3.67,-3.63,0,*54
1491418949.22,36476,14.75,73304.3,-2.87,-3.67,-3.63,0,*59
1491418950.48,36477,14.69,73302.0,-2.89,-3.63,-3.55,0,*57
1491418951.72,36478,14.69,73300.8,-2.87,-3.67,-3.63,0,*57
1491418952.97,36479,14.69,73298.0,-2.87,-3.67,-3.63,0,*56
1491418954.23,36480,14.69,73298.0,-2.89,-3.67,-3.67,0,*5A
1491418955.49,36481,14.75,73302.3,-2.89,-3.67,-3.67,0,*5B
1491418956.76,36482,14.75,73300.0,-2.89,-3.67,-3.63,0,*5C
1491418958.02,36483,14.69,73298.8,-2.89,-3.67,-3.67,0,*59
1491418959.28,36484,14.69,73298.0,-2.89,-3.67,-3.63,0,*5A
1491418960.53,36485,14.69,73300.0,-2.87,-3.67,-3.67,0,*51
1491418961.77,36486,14.69,73302.0,-2.87,-3.67,-3.67,0,*52
1491418963.01,36487,14.69,73298.5,-2.87,-3.67,-3.63,0,*57
1491418964.25,36488,14.75,73300.0,-2.87,-3.67,-3.63,0,*58
1491418965.49,36489,14.75,73302.5,-2.87,-3.67,-3.67,0,*5D
1491418966.73,36490,14.69,73300.3,-2.87,-3.67,-3.67,0,*55
1491418967.97,36491,14.69,73300.3,-2.87,-3.67,-3.67,0,*54
1491418969.21,36492,14.69,73298.8,-2.87,-3.67,-3.67,0,*57
1491418970.45,36493,14.75,73300.5,-2.87,-3.67,-3.67,0,*56
1491418971.7,36494,14.69,73302.8,-2.87,-3.67,-3.63,0,*55
1491418972.94,36495,14.69,73298.0,-2.87,-3.67,-3.67,0,*50
1491418974.18,36496,14.69,73300.8,-2.87,-3.67,-3.63,0,*57
1491418975.45,36497,14.69,73300.8,-2.85,-3.63,-3.59,0,*59
1491418976.73,36498,14.69,73298.0,-2.85,-3.63,-3.59,0,*56
1491418977.97,36499,14.75,73300.3,-2.87,-3.67,-3.67,0,*5C
1491418979.24,36500,14.69,73300.5,-2.89,-3.67,-3.67,0,*53
1491418980.48,36501,14.69,73298.8,-2.87,-3.67,-3.67,0,*5C
1491418981.72,36502,14.75,73302.0,-2.87,-3.67,-3.67,0,*5F
1491418982.96,36503,14.75,73304.0,-2.87,-3.71,-3.67,0,*59
1491418984.22,36504,14.69,73298.8,-2.89,-3.71,-3.67,0,*50
1491418985.45,36505,14.75,73302.8,-2.87,-3.79,-3.67,0,*57
1491418986.71,36506,14.69,73300.3,-2.89,-3.67,-3.63,0,*51
1491418987.95,36507,14.69,73300.5,-2.87,-3.67,-3.67,0,*5A
1491418989.18,36508,14.69,73302.3,-2.87,-3.79,-3.67,0,*5A
1491418990.42,36509,14.75,73302.5,-2.87,-3.71,-3.67,0,*53
1491418991.66,36510,14.69,73298.8,-2.87,-3.71,-3.71,0,*5C
1491418992.9,36511,14.75,73302.8,-2.87,-3.71,-3.67,0,*5A
1491418994.14,36512,14.75,73302.3,-2.87,-3.71,-3.67,0,*59
1491418995.38,36513,14.69,73300.5,-2.87,-3.71,-3.67,0,*58
1491418996.62,36514,14.69,73300.3,-2.87,-3.71,-3.67,0,*5F
1491418997.84,36515,14.69,73300.3,-2.87,-3.79,-3.67,0,*56
1491418999.11,36516,14.69,73300.0,-2.85,-3.67,-3.63,0,*5C
1491419000.35,36517,14.69,73296.8,-2.87,-3.71,-3.63,0,*58
1491419001.59,36518,14.69,73298.8,-2.87,-3.71,-3.63,0,*57
1491419002.83,36519,14.69,73298.5,-2.87,-3.71,-3.67,0,*52
1491419004.1,36520,14.75,73302.5,-2.85,-3.67,-3.63,0,*59
1491419005.37,36521,14.75,73300.0,-2.85,-3.67,-3.63,0,*58
1491419006.63,36522,14.69,73298.3,-2.85,-3.67,-3.63,0,*5B
1491419007.9,36523,14.75,73302.3,-2.85,-3.67,-3.67,0,*5E
1491419009.14,36524,14.75,73300.8,-2.87,-3.71,-3.71,0,*5B
1491419010.38,36525,14.75,73302.5,-2.87,-3.71,-3.71,0,*5A
1491419011.61,36526,14.69,73300.8,-2.87,-3.79,-3.67,0,*56
1491419012.85,36527,14.75,73302.5,-2.87,-3.71,-3.67,0,*5F
1491419014.11,36528,14.69,73298.8,-2.85,-3.67,-3.63,0,*51
1491419015.38,36529,14.69,73302.0,-2.85,-3.67,-3.67,0,*54
1491419016.62,36530,14.69,73298.0,-2.87,-3.71,-3.71,0,*5E
1491419017.86,36531,14.69,73300.8,-2.87,-3.71,-3.71,0,*5F
1491419019.1,36532,14.75,73302.5,-2.87,-3.71,-3.71,0,*5C
1491419020.36,36533,14.75,73302.5,-2.89,-3.71,-3.71,0,*53
1491419021.59,36534,14.69,73302.8,-2.87,-3.79,-3.71,0,*52
1491419022.83,36535,14.75,73300.3,-2.87,-3.71,-3.71,0,*5B
1491419024.1,36536,14.69,73298.8,-2.85,-3.67,-3.67,0,*5A
1491419025.35,36537,14.69,73298.0,-2.85,-3.67,-3.75,0,*58
1491419026.57,36538,14.69,73300.5,-2.87,-3.79,-3.71,0,*5E
1491419027.83,36539,14.69,73298.3,-2.89,-3.71,-3.71,0,*59
1491419029.08,36540,14.69,73298.3,-2.85,-3.75,-3.67,0,*58
1491419030.31,36541,14.75,73302.3,-2.87,-3.79,-3.71,0,*50
1491419031.57,36542,14.75,73300.3,-2.89,-3.71,-3.71,0,*55
1491419032.81,36543,14.69,73298.5,-2.87,-3.71,-3.71,0,*5A
1491419034.05,36544,14.69,73300.0,-2.87,-3.71,-3.71,0,*5D
1491419035.28,36545,14.75,73300.3,-2.87,-3.79,-3.71,0,*54
1491419036.52,36546,14.69,73300.5,-2.87,-3.71,-3.71,0,*5F
1491419037.78,36547,14.69,73296.3,-2.89,-3.71,-3.71,0,*50
1491419039.02,36548,14.69,73300.3,-2.87,-3.71,-3.71,0,*51
1491419040.26,36549,14.69,73298.5,-2.87,-3.71,-3.71,0,*50
1491419041.5,36550,14.75,73300.5,-2.87,-3.71,-3.71,0,*58
1491419042.74,36551,14.69,73298.8,-2.87,-3.71,-3.71,0,*59
1491419043.98,36552,14.69,73298.0,-2.87,-3.71,-3.71,0,*5A
1491419045.22,36553,14.69,73298.3,-2.87,-3.71,-3.71,0,*5B
1491419046.46,36554,14.75,73300.5,-2.87,-3.71,-3.71,0,*5C
1491419047.7,36555,14.69,73298.8,-2.87,-3.71,-3.71,0,*5D
1491419048.94,36556,14.75,73302.8,-2.87,-3.71,-3.71,0,*5E
1491419050.18,36557,14.69,73298.8,-2.87,-3.71,-3.71,0,*5F
1491419051.43,36558,14.69,73300.5,-2.87,-3.63,-3.67,0,*54
1491419052.7,36559,14.75,73300.5,-2.85,-3.63,-3.63,0,*53
1491419053.94,36560,14.69,73298.5,-2.87,-3.63,-3.67,0,*5F
1491419055.18,36561,14.69,73298.3,-2.87,-3.67,-3.67,0,*5A
1491419056.42,36562,14.69,73296.3,-2.87,-3.67,-3.67,0,*59
1491419057.69,36563,14.69,73296.3,-2.85,-3.59,-3.63,0,*53
1491419058.93,36564,14.69,73298.8,-2.83,-3.63,-3.63,0,*5B
1491419060.2,36565,14.75,73302.5,-2.85,-3.63,-3.63,0,*5C
1491419061.47,36566,14.69,73298.8,-2.85,-3.63,-3.63,0,*5F
1491419062.74,36567,14.69,73298.0,-2.85,-3.67,-3.63,0,*5A
1491419064.01,36568,14.75,73300.3,-2.85,-3.67,-3.59,0,*5C
1491419065.25,36569,14.75,73302.0,-2.87,-3.71,-3.67,0,*55
1491419066.49,36570,14.75,73302.0,-2.87,-3.71,-3.63,0,*59
1491419067.73,36571,14.75,73300.5,-2.87,-3.71,-3.67,0,*5C
1491419068.98,36572,14.69,73298.5,-2.87,-3.67,-3.67,0,*58
1491419070.22,36573,14.69,73298.5,-2.87,-3.67,-3.67,0,*59
1491419071.49,36574,14.69,73296.5,-2.85,-3.63,-3.63,0,*5C
1491419072.76,36575,14.69,73300.3,-2.85,-3.63,-3.63,0,*5D
1491419074.03,36576,14.69,73298.5,-2.85,-3.63,-3.63,0,*5E
1491419075.27,36577,14.69,73298.5,-2.83,-3.63,-3.63,0,*59
1491419076.54,36578,14.75,73300.3,-2.85,-3.63,-3.67,0,*54
1491419077.8,36579,14.69,73296.5,-2.85,-3.67,-3.67,0,*51
1491419079.07,36580,14.69,73300.0,-2.85,-3.63,-3.63,0,*57
1491419080.31,36581,14.69,73296.0,-2.83,-3.63,-3.63,0,*50
1491419081.56,36582,14.69,73300.0,-2.87,-3.67,-3.67,0,*57
1491419082.83,36583,14.69,73296.5,-2.85,-3.63,-3.59,0,*5D
1491419084.1,36584,14.69,73302.0,-2.85,-3.63,-3.63,0,*53
1491419085.37,36585,14.75,73300.8,-2.85,-3.63,-3.63,0,*52
1491419086.64,36586,14.75,73302.3,-2.85,-3.67,-3.63,0,*55
1491419087.92,36587,14.69,73296.3,-2.85,-3.63,-3.59,0,*59
1491419089.16,36588,14.69,73298.3,-2.87,-3.67,-3.63,0,*59
1491419090.4,36589,14.69,73296.8,-2.87,-3.67,-3.63,0,*58
1491419091.64,36590,14.69,73298.0,-2.87,-3.67,-3.63,0,*50
1491419092.88,36591,14.69,73300.3,-2.87,-3.67,-3.67,0,*55
1491419094.12,36592,14.75,73302.0,-2.87,-3.67,-3.67,0,*56
1491419095.39,36593,14.69,73298.8,-2.85,-3.63,-3.63,0,*55
1491419096.66,36594,14.75,73302.3,-2.85,-3.63,-3.63,0,*52
1491419097.94,36595,14.69,73298.3,-2.85,-3.63,-3.59,0,*5A
1491419099.21,36596,14.69,73298.5,-2.85,-3.63,-3.63,0,*50
1491419100.48,36597,14.69,73298.5,-2.85,-3.63,-3.59,0,*58
1491419101.76,36598,14.69,73296.5,-2.85,-3.59,-3.59,0,*5E
1491419103.04,36599,14.69,73296.0,-2.85,-3.59,-3.59,0,*5F
1491419104.31,36600,14.69,73300.0,-2.85,-3.63,-3.59,0,*55
1491419105.58,36601,14.69,73300.0,-2.85,-3.59,-3.63,0,*54
1491419106.86,36602,14.75,73302.3,-2.85,-3.59,-3.59,0,*5E
1491419108.14,36603,14.75,73300.0,-2.85,-3.63,-3.59,0,*56
1491419109.41,36604,14.75,73302.5,-2.85,-3.63,-3.59,0,*51
1491419110.69,36605,14.69,73302.3,-2.85,-3.59,-3.59,0,*59
1491419111.96,36606,14.69,73296.8,-2.85,-3.63,-3.63,0,*5A
1491419113.23,36607,14.69,73300.8,-2.85,-3.59,-3.63,0,*52
1491419114.51,36608,14.69,73300.0,-2.85,-3.59,-3.59,0,*54
1491419115.75,36609,14.69,73298.3,-2.83,-3.59,-3.51,0,*5B
1491419117.02,36610,14.69,73298.8,-2.85,-3.59,-3.51,0,*55
1491419118.3,36611,14.69,73298.8,-2.85,-3.63,-3.51,0,*5D
1491419119.57,36612,14.69,73296.5,-2.85,-3.59,-3.59,0,*5F
1491419120.85,36613,14.69,73298.8,-2.85,-3.59,-3.59,0,*5E
1491419122.12,36614,14.69,73300.3,-2.85,-3.59,-3.47,0,*56
1491419123.39,36615,14.69,73298.5,-2.85,-3.51,-3.51,0,*58
1491419124.67,36616,14.69,73302.8,-2.85,-3.59,-3.51,0,*53
1491419125.94,36617,14.69,73296.5,-2.85,-3.59,-3.51,0,*52
1491419127.21,36618,14.69,73296.5,-2.85,-3.59,-3.51,0,*5D
1491419128.48,36619,14.69,73296.3,-2.85,-3.63,-3.51,0,*55
1491419129.76,36620,14.69,73298.0,-2.85,-3.59,-3.51,0,*56
1491419131.03,36621,14.69,73300.5,-2.85,-3.59,-3.51,0,*57
1491419132.27,36622,14.69,73296.0,-2.83,-3.63,-3.51,0,*5B
1491419133.51,36623,14.69,73298.8,-2.87,-3.67,-3.55,0,*5E
1491419134.78,36624,14.69,73298.8,-2.85,-3.59,-3.47,0,*55
1491419136.03,36625,14.69,73298.0,-2.87,-3.63,-3.55,0,*5C
1491419137.27,36626,14.69,73296.5,-2.87,-3.63,-3.55,0,*5F
1491419138.54,36627,14.69,73296.8,-2.85,-3.63,-3.51,0,*58
1491419139.79,36628,14.69,73300.5,-2.83,-3.63,-3.59,0,*59
1491419141.03,36629,14.69,73296.5,-2.83,-3.63,-3.51,0,*50
1491419142.28,36630,14.69,73296.5,-2.83,-3.63,-3.59,0,*50
1491419143.55,36631,14.69,73298.8,-2.85,-3.59,-3.47,0,*51
1491419144.82,36632,14.69,73298.5,-2.85,-3.51,-3.51,0,*5D
1491419146.09,36633,14.69,73298.5,-2.85,-3.59,-3.51,0,*54
1491419147.36,36634,14.69,73300.0,-2.85,-3.63,-3.51,0,*5A
1491419148.64,36635,14.69,73298.8,-2.85,-3.63,-3.51,0,*5B
1491419149.91,36636,14.75,73302.8,-2.85,-3.63,-3.51,0,*58
1491419151.15,36637,14.69,73300.3,-2.83,-3.59,-3.51,0,*56
1491419152.39,36638,14.69,73296.3,-2.87,-3.63,-3.55,0,*50
1491419153.67,36639,14.69,73298.8,-2.85,-3.51,-3.51,0,*56
1491419154.91,36640,14.69,73302.5,-2.83,-3.59,-3.51,0,*56
1491419156.15,36641,14.69,73298.3,-2.83,-3.51,-3.51,0,*5F
1491419157.42,36642,14.69,73298.0,-2.85,-3.59,-3.47,0,*55
1491419158.69,36643,14.69,73298.3,-2.85,-3.59,-3.47,0,*54
1491419159.97,36644,14.69,73296.5,-2.85,-3.59,-3.59,0,*5C
1491419161.24,36645,14.69,73296.0,-2.85,-3.59,-3.47,0,*52
1491419162.51,36646,14.69,73298.8,-2.85,-3.59,-3.51,0,*56
1491419163.76,36647,14.69,73296.8,-2.83,-3.63,-3.51,0,*58
1491419165.03,36648,14.69,73300.5,-2.85,-3.59,-3.47,0,*5F
1491419166.3,36649,14.69,73300.3,-2.85,-3.59,-3.47,0,*5E
1491419167.57,36650,14.69,73298.3,-2.85,-3.63,-3.51,0,*58
1491419168.84,36651,14.69,73298.3,-2.85,-3.51,-3.51,0,*58
1491419170.08,36652,14.69,73298.8,-2.83,-3.63,-3.51,0,*5C
1491419171.35,36653,14.69,73300.8,-2.85,-3.59,-3.51,0,*52
1491419172.59,36654,14.69,73296.0,-2.83,-3.59,-3.47,0,*54
1491419173.87,36655,14.69,73296.8,-2.85,-3.51,-3.51,0,*5C
1491419175.11,36656,14.69,73298.0,-2.83,-3.59,-3.47,0,*56
1491419176.35,36657,14.69,73298.8,-2.83,-3.59,-3.47,0,*57
1491419177.59,36658,14.69,73296.5,-2.83,-3.63,-3.51,0,*56
1491419178.86,36659,14.69,73296.5,-2.85,-3.59,-3.51,0,*58
1491419180.14,36660,14.69,73302.0,-2.85,-3.51,-3.51,0,*5A
1491419181.41,36661,14.75,73302.0,-2.85,-3.59,-3.51,0,*53
1491419182.65,36662,14.69,73300.8,-2.83,-3.51,-3.51,0,*5E
1491419183.92,36663,14.69,73300.0,-2.85,-3.51,-3.51,0,*59
1491419185.19,36664,14.69,73300.3,-2.85,-3.51,-3.47,0,*59
1491419186.43,36665,14.69,73298.0,-2.83,-3.51,-3.51,0,*59
1491419187.68,36666,14.69,73298.8,-2.83,-3.59,-3.51,0,*52
1491419188.95,36667,14.69,73300.0,-2.85,-3.59,-3.51,0,*55
1491419190.19,36668,14.69,73298.3,-2.83,-3.59,-3.51,0,*5C
1491419191.44,36669,14.69,73300.5,-2.83,-3.59,-3.51,0,*5D
1491419192.68,36670,14.69,73298.5,-2.83,-3.51,-3.47,0,*5A
1491419193.95,36671,14.69,73296.8,-2.85,-3.51,-3.51,0,*5A
1491419195.19,36672,14.69,73300.3,-2.83,-3.59,-3.47,0,*50
1491419196.43,36673,14.69,73296.0,-2.83,-3.51,-3.51,0,*5E
1491419197.7,36674,14.69,73296.8,-2.85,-3.51,-3.51,0,*5F
1491419198.97,36675,14.69,73296.8,-2.85,-3.51,-3.47,0,*59
1491419200.21,36676,14.69,73298.5,-2.83,-3.51,-3.51,0,*5B
1491419201.49,36677,14.69,73294.3,-2.85,-3.59,-3.51,0,*54
1491419202.73,36678,14.69,73298.5,-2.83,-3.59,-3.51,0,*5D
1491419204.0,36679,14.69,73298.5,-2.85,-3.59,-3.47,0,*5D
1491419205.24,36680,14.69,73296.8,-2.83,-3.51,-3.47,0,*55
1491419206.51,36681,14.69,73298.8,-2.85,-3.59,-3.47,0,*5A
1491419207.78,36682,14.69,73296.0,-2.85,-3.51,-3.47,0,*51
1491419209.02,36683,14.69,73296.5,-2.83,-3.59,-3.59,0,*51
1491419210.3,36684,14.69,73298.5,-2.85,-3.59,-3.47,0,*5F
1491419211.53,36685,14.69,73298.3,-2.83,-3.51,-3.47,0,*50
1491419212.81,36686,14.69,73298.3,-2.85,-3.51,-3.51,0,*52
1491419214.08,36687,14.69,73298.3,-2.85,-3.51,-3.47,0,*54
1491419215.35,36688,14.69,73298.8,-2.85,-3.51,-3.47,0,*5B
1491419216.59,36689,14.69,73302.3,-2.83,-3.59,-3.47,0,*54
1491419217.85,36690,14.69,73298.8,-2.85,-3.51,-3.47,0,*52
1491419219.09,36691,14.69,73298.3,-2.83,-3.47,-3.47,0,*52
1491419220.33,36692,14.69,73296.0,-2.83,-3.51,-3.47,0,*56
1491419221.58,36693,14.69,73296.3,-2.83,-3.59,-3.51,0,*58
1491419222.81,36694,14.69,73298.3,-2.83,-3.51,-3.47,0,*50
1491419224.06,36695,14.69,73298.0,-2.83,-3.51,-3.47,0,*51
1491419225.32,36696,14.69,73300.3,-2.85,-3.51,-3.47,0,*54
1491419226.59,36697,14.69,73298.0,-2.85,-3.59,-3.47,0,*5D
1491419227.83,36698,14.69,73294.5,-2.83,-3.51,-3.47,0,*5C
1491419229.08,36699,14.69,73296.3,-2.83,-3.47,-3.51,0,*5D
1491419230.35,36700,14.69,73298.0,-2.85,-3.51,-3.51,0,*5D
1491419231.59,36701,14.69,73298.5,-2.83,-3.47,-3.51,0,*5D
1491419232.86,36702,14.69,73298.3,-2.85,-3.51,-3.47,0,*58
1491419234.1,36703,14.69,73296.0,-2.83,-3.51,-3.51,0,*58
1491419235.37,36704,14.69,73298.3,-2.85,-3.59,-3.47,0,*56
1491419236.61,36705,14.69,73296.5,-2.83,-3.51,-3.47,0,*59
1491419237.85,36706,14.69,73298.8,-2.83,-3.51,-3.51,0,*5D
1491419239.12,36707,14.69,73300.3,-2.85,-3.59,-3.47,0,*55
1491419240.39,36708,14.69,73300.3,-2.85,-3.59,-3.47,0,*5A
1491419241.63,36709,14.69,73296.5,-2.83,-3.59,-3.47,0,*5D
1491419242.91,36710,14.69,73300.3,-2.85,-3.59,-3.51,0,*54
1491419244.18,36711,14.69,73300.0,-2.85,-3.59,-3.47,0,*52
1491419245.45,36712,14.69,73298.0,-2.85,-3.51,-3.47,0,*59
1491419246.69,36713,14.69,73302.3,-2.83,-3.51,-3.51,0,*59
1491419247.93,36714,14.69,73296.5,-2.83,-3.51,-3.47,0,*59
1491419249.17,36715,14.69,73302.8,-2.83,-3.51,-3.51,0,*5F
1491419250.44,36716,14.69,73300.8,-2.85,-3.51,-3.51,0,*5A
1491419251.68,36717,14.75,73300.0,-2.83,-3.51,-3.51,0,*5D
1491419252.95,36718,14.69,73298.5,-2.85,-3.51,-3.47,0,*53
1491419254.19,36719,14.69,73298.3,-2.83,-3.59,-3.47,0,*5C
1491419255.46,36720,14.69,73296.3,-2.85,-3.59,-3.47,0,*50
1491419256.71,36721,14.69,73300.0,-2.83,-3.59,-3.51,0,*50
1491419257.98,36722,14.69,73300.0,-2.85,-3.51,-3.47,0,*5A
1491419259.25,36723,14.69,73296.5,-2.85,-3.51,-3.47,0,*5B
1491419260.49,36724,14.75,73300.3,-2.83,-3.51,-3.51,0,*5D
1491419261.73,36725,14.69,73300.8,-2.83,-3.51,-3.47,0,*5B
1491419262.97,36726,14.69,73298.5,-2.83,-3.51,-3.47,0,*58
1491419264.24,36727,14.69,73298.8,-2.85,-3.47,-3.51,0,*5F
1491419265.48,36728,14.69,73300.3,-2.83,-3.51,-3.51,0,*51
1491419266.72,36729,14.69,73296.8,-2.83,-3.47,-3.47,0,*50
1491419267.99,36730,14.69,73298.5,-2.85,-3.51,-3.47,0,*59
1491419269.23,36731,14.69,73298.3,-2.83,-3.47,-3.47,0,*59
1491419270.48,36732,14.69,73302.5,-2.85,-3.47,-3.35,0,*59
1491419271.72,36733,14.69,73298.0,-2.83,-3.51,-3.47,0,*5C
1491419272.97,36734,14.69,73298.3,-2.85,-3.51,-3.39,0,*54
1491419274.21,36735,14.69,73298.8,-2.83,-3.47,-3.51,0,*5A
1491419275.45,36736,14.69,73298.3,-2.83,-3.51,-3.51,0,*5E
1491419276.69,36737,14.69,73298.0,-2.83,-3.51,-3.51,0,*5F
1491419277.97,36738,14.69,73296.5,-2.85,-3.59,-3.47,0,*59
1491419279.2,36739,14.69,73298.0,-2.83,-3.51,-3.47,0,*56
1491419280.48,36740,14.69,73300.0,-2.85,-3.51,-3.51,0,*59
1491419281.72,36741,14.69,73296.5,-2.83,-3.51,-3.47,0,*59
1491419282.96,36742,14.69,73294.5,-2.83,-3.51,-3.47,0,*5A
1491419284.19,36743,14.69,73298.0,-2.83,-3.51,-3.47,0,*5B
1491419285.44,36744,14.69,73296.0,-2.83,-3.51,-3.51,0,*5B
1491419286.68,36745,14.69,73298.5,-2.83,-3.51,-3.47,0,*5D
1491419287.95,36746,14.69,73302.3,-2.85,-3.47,-3.51,0,*58
1491419289.17,36747,14.69,73296.0,-2.83,-3.51,-3.39,0,*56
1491419290.41,36748,14.69,73298.8,-2.83,-3.51,-3.51,0,*57
1491419291.68,36749,14.69,73296.3,-2.85,-3.47,-3.47,0,*50
1491419292.95,36750,14.69,73296.8,-2.85,-3.47,-3.51,0,*5F
1491419294.19,36751,14.69,73292.8,-2.83,-3.51,-3.47,0,*58
1491419295.46,36752,14.69,73302.3,-2.85,-3.51,-3.51,0,*5A
1491419296.71,36753,14.69,73300.8,-2.83,-3.51,-3.51,0,*5D
1491419297.94,36754,14.69,73296.8,-2.83,-3.51,-3.47,0,*5D
1491419299.18,36755,14.69,73302.0,-2.83,-3.51,-3.47,0,*5C
1491419300.46,36756,14.69,73300.0,-2.85,-3.51,-3.51,0,*5E
1491419301.73,36757,14.69,73298.5,-2.85,-3.51,-3.47,0,*58
1491419302.96,36758,14.69,73296.5,-2.83,-3.47,-3.47,0,*56
1491419304.2,36759,14.69,73298.3,-2.83,-3.51,-3.47,0,*50
1491419305.45,36760,14.69,73298.3,-2.83,-3.51,-3.51,0,*5D
1491419306.71,36761,14.69,73296.0,-2.85,-3.51,-3.47,0,*5D
1491419307.96,36762,14.69,73296.8,-2.83,-3.51,-3.51,0,*5F
1491419309.23,36763,14.69,73296.8,-2.85,-3.59,-3.51,0,*50
1491419310.5,36764,14.69,73298.5,-2.85,-3.59,-3.47,0,*50
1491419311.74,36765,14.69,73298.8,-2.83,-3.59,-3.51,0,*50
1491419313.01,36766,14.69,73296.8,-2.85,-3.51,-3.47,0,*5A
1491419314.29,36767,14.69,73294.3,-2.85,-3.59,-3.59,0,*5C
1491419315.56,36768,14.69,73296.3,-2.85,-3.59,-3.51,0,*5B
1491419316.83,36769,14.69,73298.5,-2.85,-3.63,-3.51,0,*53
1491419318.11,36770,14.69,73298.5,-2.85,-3.59,-3.47,0,*55